{"data":{"norad_id":44885,"epoch":"2026-05-25T04:50:43.774656Z","epoch_age_seconds":57530,"freshness":"FRESH","line1":"1 44885U 19093G   26145.20189554  .00005920  00000+0  43696-3 0  9999","line2":"2 44885  97.7912 239.2690 0012657 144.3482 215.8590 15.03587670349192","mean_motion":15.0358767,"eccentricity":0.0012657,"inclination_deg":97.7912,"raan_deg":239.269,"arg_perigee_deg":144.3482,"mean_anomaly_deg":215.859,"bstar":0.00043696,"rev_number":34919,"period_min":95.77093698833,"perigee_km":547.06803616407,"apogee_km":564.62071662027,"semimajor_km":6933.9813763922,"source":"CELESTRAK","updated_at":"2026-05-25T13:37:56.039920Z"}}